www.pogodaiklimat.ru

Погода и климат >> Архив погоды >> Россия >> Якутия >> Колымская


ПОГОДА в Колымской

  • Прогноз погоды в Колымской
  • Монитор погоды в Колымской

АРХИВ ПОГОДЫ в Колымской

Время (UTC), дата Ветер
(напр.,м/с)
 
Видим.   Явления Облачность Т
(С)
Тd
(С)
f
(%)
Тe
(С)
Тes
(С)
Комфортность P
(гПа)
Po
(гПа)
Тmin
(С)
Tmax
(С)
R
(мм)
R24
(мм)
S
(см)
06 18.08 В 4 20 км 4/0
[Ci fib]
+18.4 +7.1 48 +19 +20 1025.3 1023.9
09 18.08 В 3 20 км 8/0
[Ci fib]
+14.5 +9.0 70 +14 +14 1024.5 1023.1 +18.8
12 18.08 В 3 20 км 3/0
[Ci fib]
+7.6 +7.0 96 +5 +5 1024.3 1022.9
15 18.08 В 3 20 км 3/0
[Ac trans]
+5.7 +5.2 97 +2 +2 1024.2 1022.7
18 18.08 В 3 4000 м дымка ясно +4.2 +4.0 99 0 0 1024.3 1022.8
21 18.08 ЮВ 2 20 км ясно +11.9 +8.9 82 +11 +13 1024.4 1023.0 +0.1
00 19.08 ЮЗ 1 20 км ясно +16.4 +9.7 65 +17 +24 1024.4 1023.0
03 19.08 З 1 20 км ясно +21.0 +5.6 37 +23 +30 комфорт 1023.8 1022.4
06 19.08 штиль 0 20 км 3/0
[Ci fib]
+21.4 +7.0 39 +22 +25 комфорт 1023.5 1022.1
09 19.08 В 2 20 км 8/0
[Ci fib]
+15.0 +9.4 69 +15 +15 1023.5 1022.1 +22.3
12 19.08 В 4 20 км 8/0
[Ci fib]
+9.8 +9.0 95 +7 +7 1023.3 1021.9
15 19.08 В 2 20 км 3/0
[Ci fib]
+7.6 +7.4 99 +5 +5 1022.8 1021.4
18 19.08 В 3 20 км 1/0
[Ci fib]
+8.7 +8.5 99 +6 +6 1022.6 1021.2
21 19.08 В 1 20 км 1/0
[Ci fib]
+14.7 +10.9 78 +15 +18 1022.4 1021.0 +7.2
00 20.08 В 3 20 км 3/0
[Ci fib]
+20.3 +11.7 58 +22 +27 комфорт 1021.8 1020.4
03 20.08 ЮВ 4 20 км 3/0
[Ci fib]
+23.0 +11.2 47 +25 +29 комфорт 1020.6 1019.2
06 20.08 В 4 20 км 8/0
[Ci fib]
+23.0 +10.5 45 +25 +26 комфорт 1019.7 1018.3
09 20.08 В 2 20 км 8/0
[Ci fib]
+17.7 +12.3 71 +18 +18 1019.6 1018.2 +23.5
12 20.08 В 4 20 км 8/0
[Ci fib]
+10.7 +9.3 91 +8 +8 1019.5 1018.1
15 20.08 СВ 3 20 км 8/0
[Ci fib]
+8.2 +7.8 97 +5 +5 1019.3 1017.9
18 20.08 СВ 3 20 км 6/0
[Ci fib]
+8.9 +8.7 99 +6 +6 1019.1 1017.7
21 20.08 СВ 2 20 км 4/0
[As trans Cc]
+14.9 +12.9 88 +15 +17 1019.1 1017.7 +7.5
00 21.08 СВ 3 20 км 3/0
[Ci fib]
+20.4 +12.4 60 +23 +27 комфорт 1019.1 1017.7
03 21.08 СВ 4 20 км 8/0
[Ci fib]
+21.7 +10.6 49 +23 +27 комфорт 1018.4 1017.0
06 21.08 СВ 4 20 км 1/0
[Ci fib]
+20.7 +10.7 53 +23 +24 комфорт 1018.5 1017.1
09 21.08 С 2 20 км 4/0
[Ci fib]
+16.7 +12.2 75 +17 +17 1018.2 1016.8 +22.0
12 21.08 С 3 20 км 3/0
[As op]
+10.5 +9.7 95 +8 +8 1018.8 1017.4
15 21.08 С 5 500 м туман ?/? +10.3 +9.9 97 +7 +7 1019.6 1018.2
18 21.08 СВ 6 500 м туман ?/? +8.8 +8.4 97 +5 +5 1020.7 1013.9
21 21.08 СВ 3 1000 м дымка {туман} 10/10 300 м
[St]
+6.8 +6.6 99 +4 +4 1022.3 1020.9 +6.6
00 22.08 СВ 4 20 км {туман} 10/10 300 м
[St]
+7.1 +6.7 97 +3 +3 1023.1 1021.7
03 22.08 СВ 5 20 км 10/10 300 м
[Sc]
+7.8 +6.7 93 +4 +4 1023.2 1021.8
06 22.08 СВ 5 20 км 10/10 300 м
[Sc]
+6.8 +5.5 91 +3 +3 1023.2 1021.8
09 22.08 СВ 5 2000 м дымка 10/10 300 м
[St]
+5.2 +4.7 97 0 0 1023.2 1021.8 +8.1
12 22.08 СВ 5 1000 м туман ?/? +4.8 +4.8 100 -0 -0 1023.1 1021.6
15 22.08 С 4 500 м туман ?/? +4.7 +4.7 100 0 0 1022.8 1021.3
18 22.08 С 3 20 км {туман} 8/8 300 м
[St]
+4.2 +3.7 97 0 0 1022.4 1020.9
21 22.08 СВ 3 20 км 4/4 300 м
[St]
+7.4 +5.1 85 +5 +6 1021.8 1020.4 +3.9
00 23.08 В 3 20 км 8/8 300 м
[St]
+7.7 +5.7 87 +5 +6 1021.2 1019.8
03 23.08 В 3 20 км 3/3 300 м
[Sc]
+10.9 +7.8 81 +9 +12 1020.0 1018.6
06 23.08 В 4 20 км 3/0
[Ac trans Ci fib]
+11.0 +7.0 76 +9 +10 1018.4 1017.0
09 23.08 СВ 2 20 км 8/0
[Ci fib]
+9.6 +7.7 88 +8 +8 1017.5 1016.1 +12.5
12 23.08 СВ 3 500 м туман 6/0
[Ci fib]
+4.3 +4.3 100 0 0 1016.3 1014.8
15 23.08 СВ 3 500 м туман 6/0
[Ci fib]
+2.4 +2.4 100 -2 -2 1015.2 1013.7
18 23.08 В 3 500 м туман 8/0
[Ac trans]
+2.6 +2.6 100 -2 -2 1013.9 1012.4
21 23.08 В 2 20 км {туман} 9/0
[Ac trans]
+9.7 +9.3 97 +8 +9 1012.9 1011.5 +2.1
00 24.08 В 2 20 км {туман} 9/0
[Ac trans]
+16.5 +10.3 67 +17 +19 1011.7 1010.3
03 24.08 ЮВ 3 20 км 4/0
[Ci fib]
+19.8 +8.5 48 +21 +25 комфорт 1010.1 1008.7
06 24.08 В 2 20 км 6/0
[Ac trans Ci fib]
+20.2 +7.3 43 +22 +23 комфорт 1009.1 1007.7
09 24.08 В 3 20 км 4/0
[Ci fib]
+13.7 +10.0 78 +13 +13 1008.0 1006.6 +20.6
12 24.08 СВ 3 20 км 3/0
[Ci fib]
+7.3 +6.4 94 +4 +4 1007.5 1006.1
15 24.08 СВ 3 20 км 3/0
[Ci fib]
+5.5 +5.3 99 +2 +2 1007.0 1005.6
18 24.08 СВ 3 10 км 3/0
[As op]
+5.8 +5.8 100 +2 +2 1006.3 1004.9
21 24.08 СВ 2 20 км 9/0
[Ac As]
+10.3 +9.1 92 +9 +9 1006.1 1004.7 +5.2
00 25.08 СВ 3 20 км 8/3 600 м
[Cu med, cong As trans Ci fib]
+16.1 +8.7 61 +16 +18 1005.3 1003.9

 

Местоположение метеостанции Колымская (Якутия, Россия): широта 68.72 долгота 158.60 высота над уровнем моря 12 м.

В архиве по умолчанию представлена погода в Колымской за последнюю неделю. Архивные данные за месяц целиком и за предыдущие месяцы, начиная с января 2011 года, Вы можете получить, выбрав интересующий диапазон дат из раскрывающегося списка и нажав кнопку "Ввод!".


*Определитесь, кто Вы:
робот инопланетянин человек

Внимание! Время в таблицах - всемирное. Для получения местного времени необходимо прибавить поправку, которая равна 11 ч.

Смотрите также архив погоды в соседних городах и на ближайших метеорологических станциях:

Погода в Черском (Якутия, Россия) (109 км)
Погода в Константиновской (Чукотка, Россия) (120 км)
Погода в Анюйске (Чукотка, Россия) (125 км)
Погода в Андрюшкино (Якутия, Россия) (171 км)
Погода в Бухте Амбарчик (Чукотка, Россия) (177 км)
Погода в Островном (Чукотка, Россия) (235 км)
Погода в Среднеколымске (Якутия, Россия) (248 км)
Погода в Раучуе (Чукотка, Россия) (325 км)
Погода в Билибино (Чукотка, Россия) (328 км)
Погода в Баимке (Чукотка, Россия) (340 км)

Пояснения к столбцам:

Ветер - указаны скорость ветра в м/с - средняя за 10 мин, порывы в срок и между сроками (в фигурных скобках) и направление, откуда дует ветер: С - северный, СВ - северо-восточный, В - восточный, ЮВ - юго-восточный, Ю - южный, ЮЗ - юго-западный, З - западный, СЗ - северо-западный.
Видимость - горизонтальная дальность видимости в метрах или километрах. При видимости от 1 до 10 км при отсутствии осадков обычно наблюдается дымка, при ухудшении видимости до 1 км и менее - туман. В сухую погоду видимость может ухудшаться дымом, пылью или мглою.
Явления - указаны атмосферные явления, наблюдавшиеся в срок или в последний час перед сроком; фигурными скобками обозначены явления, наблюдавшиеся между сроками (за 1-3 часа до срока); квадратными скобками обозначены град или гололедные отложения с указанием их диаметра в мм.
Облачность - указаны через наклонную черту общая и нижняя облачность в баллах и высота нижней границы облаков в метрах; квадратными скобками обозначены формы облаков: Ci - перистые, Cs - перисто-слоистые, Cc - перисто-кучевые, Ac - высококучевые, As - высокослоистые, Sc - слоисто-кучевые, Ns - слоисто-дождевые, Cu - кучевые, Cb - кучево-дождевые. Подробнее классификацию облаков см. в Атласе облаков (PDF).
T - Температура воздуха - температура, измеренная на высоте 2 м над землей.
Td - Температура точки росы - температура, при понижении до которой содержащийся в воздухе водяной пар достигнет насыщения.
f - Относительная влажность воздуха - влажноcть воздуха, измеренная на высоте 2 м над землей.
Te - Эффективная температура - температура, которую ощущает одетый по сезону человек в тени. Характеристика душности погоды. При расчете учитывается влияние влажности воздуха и скорости ветра на теплоощущения человека.
Tes - Эффективная температура на солнце - температура, которую ощущает человек, с поправкой на солнечный нагрев. Характеристика знойности погоды. Зависит от высоты солнца над горизонтом, облачности и скорости ветра. Ночью, в пасмурную погоду, а также при ветре 12 м/с и более поправка равна нулю.
P - Атмосферное давление - приведенное к уровню моря атмосферное давление.
Po - Атмосферное давление - измеренное на уровне метеостанции атмосферное давление.
Tmin - Минимальная температура - минимум температуры воздуха на высоте 2 м над землей.
Tmax - Максимальная температура - максимум температуры воздуха на высоте 2 м над землей.
R - Количество осадков - Количество выпавших осадков за период времени, мм. При наведении курсора мыши на число - период времени, за который выпало указанное количество осадков.
R24 - Количество осадков - Количество выпавших осадков за 24 часа, мм.
S - Снежный покров - Высота снежного покрова, см. При наведении курсора мыши на число - состояние снежного покрова и степень покрытия местности в баллах.